Time,TemperatureF,DewpointF,PressureIn,WindDirection,WindDirectionDegrees,WindSpeedMPH,WindSpeedGustMPH,Humidity,HourlyPrecipIn,Conditions,Clouds,dailyrainin,SoftwareType,DateUTC
2013-01-09 00:01:00,29.1,8.4,21.85,NW,315,2.7,3.6,41,0.00,,---,0.00,VWS V14.01,2013-01-09 07:01:00,
2013-01-09 00:06:00,29.3,8.5,21.85,NW,315,4.0,4.5,41,0.00,,---,0.00,VWS V14.01,2013-01-09 07:06:00,
2013-01-09 00:11:00,28.6,7.9,21.85,SSW,202,0.0,3.6,41,0.00,,---,0.00,VWS V14.01,2013-01-09 07:11:00,
2013-01-09 00:16:00,28.2,8.1,21.85,West,270,5.8,6.3,42,0.00,,---,0.00,VWS V14.01,2013-01-09 07:16:00,
2013-01-09 00:21:00,28.0,7.9,21.85,North,0,2.7,5.4,42,0.00,,---,0.00,VWS V14.01,2013-01-09 07:21:00,
2013-01-09 00:27:00,28.0,7.9,21.85,NW,315,4.0,4.9,42,0.00,,---,0.00,VWS V14.01,2013-01-09 07:27:00,
2013-01-09 00:32:00,28.9,8.2,21.85,NW,315,3.6,5.8,41,0.00,,---,0.00,VWS V14.01,2013-01-09 07:32:00,
2013-01-09 00:37:00,28.9,8.2,21.85,West,270,0.0,0.0,41,0.00,,---,0.00,VWS V14.01,2013-01-09 07:37:00,
2013-01-09 00:42:00,29.1,8.4,21.85,North,0,3.1,6.7,41,0.00,,---,0.00,VWS V14.01,2013-01-09 07:42:00,
2013-01-09 00:47:00,30.2,9.4,21.85,NW,315,0.0,2.7,41,0.00,,---,0.00,VWS V14.01,2013-01-09 07:47:00,
2013-01-09 00:52:00,30.4,9.0,21.85,West,270,4.9,4.9,40,0.00,,---,0.00,VWS V14.01,2013-01-09 07:52:00,
2013-01-09 00:57:00,31.8,10.3,21.85,SW,225,3.6,5.4,40,0.00,,---,0.00,VWS V14.01,2013-01-09 07:57:00,
2013-01-09 01:02:00,31.8,10.3,21.85,SE,135,4.0,4.0,40,0.00,,---,0.00,VWS V14.01,2013-01-09 08:02:00,
2013-01-09 01:07:00,31.5,9.9,21.85,East,90,4.0,4.0,40,0.00,,---,0.00,VWS V14.01,2013-01-09 08:07:00,
2013-01-09 01:12:00,31.3,9.8,21.85,North,0,3.6,3.6,40,0.00,,---,0.00,VWS V14.01,2013-01-09 08:12:00,
2013-01-09 01:17:00,30.4,9.0,21.85,North,0,4.9,5.4,40,0.00,,---,0.00,VWS V14.01,2013-01-09 08:17:00,
2013-01-09 01:22:00,30.4,9.0,21.85,NNW,338,2.7,3.1,40,0.00,,---,0.00,VWS V14.01,2013-01-09 08:22:00,
2013-01-09 01:27:00,29.3,8.5,21.85,East,90,2.2,2.2,41,0.00,,---,0.00,VWS V14.01,2013-01-09 08:27:00,
2013-01-09 01:32:00,28.6,7.9,21.88,ENE,68,0.0,0.0,41,0.00,,---,0.00,VWS V14.01,2013-01-09 08:32:00,
2013-01-09 01:38:00,27.9,7.2,21.88,East,90,3.1,3.6,41,0.00,,---,0.00,VWS V14.01,2013-01-09 08:38:00,
2013-01-09 01:43:00,27.9,7.2,21.88,NW,315,0.0,4.0,41,0.00,,---,0.00,VWS V14.01,2013-01-09 08:43:00,
2013-01-09 01:48:00,27.3,7.3,21.88,NW,315,0.0,0.0,42,0.00,,---,0.00,VWS V14.01,2013-01-09 08:48:00,
2013-01-09 01:53:00,27.1,7.1,21.88,ESE,112,4.0,4.9,42,0.00,,---,0.00,VWS V14.01,2013-01-09 08:53:00,
2013-01-09 01:59:00,27.7,7.6,21.88,NNW,338,2.7,4.0,42,0.00,,---,0.00,VWS V14.01,2013-01-09 08:59:00,
2013-01-09 02:04:00,28.2,8.1,21.88,NW,315,2.2,4.0,42,0.00,,---,0.00,VWS V14.01,2013-01-09 09:04:00,
2013-01-09 02:09:00,27.9,7.8,21.88,West,270,2.2,2.2,42,0.00,,---,0.00,VWS V14.01,2013-01-09 09:09:00,
2013-01-09 02:14:00,28.6,7.9,21.88,West,270,6.3,6.3,41,0.00,,---,0.00,VWS V14.01,2013-01-09 09:14:00,
2013-01-09 02:19:00,28.8,8.0,21.88,WNW,292,0.0,3.1,41,0.00,,---,0.00,VWS V14.01,2013-01-09 09:19:00,
2013-01-09 02:24:00,28.2,8.1,21.88,NW,315,3.1,3.1,42,0.00,,---,0.00,VWS V14.01,2013-01-09 09:24:00,
2013-01-09 02:29:00,27.7,7.6,21.88,North,0,3.1,4.0,42,0.00,,---,0.00,VWS V14.01,2013-01-09 09:29:00,
2013-01-09 02:34:00,27.5,7.4,21.88,North,0,4.0,4.0,42,0.00,,---,0.00,VWS V14.01,2013-01-09 09:34:00,
2013-01-09 02:39:00,28.2,8.1,21.88,North,0,4.9,4.9,42,0.00,,---,0.00,VWS V14.01,2013-01-09 09:39:00,
2013-01-09 02:45:00,27.9,7.8,21.88,NE,45,0.0,3.6,42,0.00,,---,0.00,VWS V14.01,2013-01-09 09:45:00,
2013-01-09 02:50:00,27.5,7.4,21.88,NW,315,4.5,4.5,42,0.00,,---,0.00,VWS V14.01,2013-01-09 09:50:00,
2013-01-09 02:55:00,27.7,7.6,21.88,North,0,0.0,4.0,42,0.00,,---,0.00,VWS V14.01,2013-01-09 09:55:00,
2013-01-09 03:00:00,27.5,7.4,21.88,NNE,22,3.1,4.9,42,0.00,,---,0.00,VWS V14.01,2013-01-09 10:00:00,
2013-01-09 03:05:00,28.0,7.9,21.88,NE,45,3.6,3.6,42,0.00,,---,0.00,VWS V14.01,2013-01-09 10:05:00,
2013-01-09 03:10:00,27.9,7.8,21.88,NW,315,4.9,4.9,42,0.00,,---,0.00,VWS V14.01,2013-01-09 10:10:00,
2013-01-09 03:15:00,27.9,7.8,21.85,North,0,4.0,4.0,42,0.00,,---,0.00,VWS V14.01,2013-01-09 10:15:00,
2013-01-09 03:20:00,27.7,7.6,21.85,NW,315,0.0,0.0,42,0.00,,---,0.00,VWS V14.01,2013-01-09 10:20:00,
2013-01-09 03:25:00,28.0,7.9,21.85,NW,315,2.7,3.6,42,0.00,,---,0.00,VWS V14.01,2013-01-09 10:25:00,
2013-01-09 03:30:00,28.0,7.9,21.88,NW,315,3.1,3.1,42,0.00,,---,0.00,VWS V14.01,2013-01-09 10:30:00,
2013-01-09 03:35:00,28.4,8.2,21.88,North,0,0.0,2.2,42,0.00,,---,0.00,VWS V14.01,2013-01-09 10:35:00,
2013-01-09 03:40:00,28.9,8.2,21.88,NW,315,2.2,5.8,41,0.00,,---,0.00,VWS V14.01,2013-01-09 10:40:00,
2013-01-09 03:45:00,28.8,8.0,21.88,NW,315,0.0,3.1,41,0.00,,---,0.00,VWS V14.01,2013-01-09 10:45:00,
2013-01-09 03:50:00,28.4,8.2,21.88,ENE,68,0.0,0.0,42,0.00,,---,0.00,VWS V14.01,2013-01-09 10:50:00,
2013-01-09 03:55:00,27.3,7.3,21.88,NNW,338,2.7,2.7,42,0.00,,---,0.00,VWS V14.01,2013-01-09 10:55:00,
2013-01-09 04:01:00,26.4,6.4,21.85,NNW,338,2.2,3.1,42,0.00,,---,0.00,VWS V14.01,2013-01-09 11:01:00,
2013-01-09 04:06:00,27.0,6.9,21.85,NNW,338,0.0,0.0,42,0.00,,---,0.00,VWS V14.01,2013-01-09 11:06:00,
2013-01-09 04:11:00,27.9,7.8,21.85,NW,315,3.6,4.9,42,0.00,,---,0.00,VWS V14.01,2013-01-09 11:11:00,
2013-01-09 04:16:00,28.2,8.1,21.85,NE,45,4.9,4.9,42,0.00,,---,0.00,VWS V14.01,2013-01-09 11:16:00,
2013-01-09 04:21:00,28.9,8.2,21.85,North,0,2.7,3.6,41,0.00,,---,0.00,VWS V14.01,2013-01-09 11:21:00,
2013-01-09 04:26:00,28.8,8.0,21.85,NW,315,0.0,2.2,41,0.00,,---,0.00,VWS V14.01,2013-01-09 11:26:00,
2013-01-09 04:31:00,28.6,7.9,21.85,NW,315,2.2,2.7,41,0.00,,---,0.00,VWS V14.01,2013-01-09 11:31:00,
2013-01-09 04:36:00,27.9,7.8,21.85,NW,315,0.0,0.0,42,0.00,,---,0.00,VWS V14.01,2013-01-09 11:36:00,
2013-01-09 04:41:00,27.0,6.9,21.85,NW,315,0.0,0.0,42,0.00,,---,0.00,VWS V14.01,2013-01-09 11:41:00,
2013-01-09 04:46:00,26.8,6.8,21.85,NW,315,0.0,0.0,42,0.00,,---,0.00,VWS V14.01,2013-01-09 11:46:00,
2013-01-09 04:51:00,26.4,6.4,21.85,North,0,0.0,0.0,42,0.00,,---,0.00,VWS V14.01,2013-01-09 11:51:00,
2013-01-09 04:56:00,25.5,5.6,21.85,North,0,0.0,0.0,42,0.00,,---,0.00,VWS V14.01,2013-01-09 11:56:00,
2013-01-09 05:01:00,25.3,5.5,21.85,North,0,0.0,0.0,42,0.00,,---,0.00,VWS V14.01,2013-01-09 12:01:00,
2013-01-09 05:06:00,25.7,6.3,21.85,North,0,2.2,3.1,43,0.00,,---,0.00,VWS V14.01,2013-01-09 12:06:00,
2013-01-09 05:11:00,25.9,6.0,21.85,North,0,0.0,0.0,42,0.00,,---,0.00,VWS V14.01,2013-01-09 12:11:00,
2013-01-09 05:16:00,26.1,6.1,21.88,North,0,3.6,3.6,42,0.00,,---,0.00,VWS V14.01,2013-01-09 12:16:00,
2013-01-09 05:21:00,26.1,6.1,21.88,North,0,0.0,0.0,42,0.00,,---,0.00,VWS V14.01,2013-01-09 12:21:00,
2013-01-09 05:26:00,26.6,7.1,21.88,North,0,2.2,3.1,43,0.00,,---,0.00,VWS V14.01,2013-01-09 12:26:00,
2013-01-09 05:31:00,27.0,6.9,21.88,NW,315,3.1,3.1,42,0.00,,---,0.00,VWS V14.01,2013-01-09 12:31:00,
2013-01-09 05:36:00,28.0,7.9,21.88,North,0,2.7,2.7,42,0.00,,---,0.00,VWS V14.01,2013-01-09 12:36:00,
2013-01-09 05:42:00,28.9,8.2,21.88,NW,315,3.6,4.0,41,0.00,,---,0.00,VWS V14.01,2013-01-09 12:42:00,
2013-01-09 05:47:00,28.2,8.1,21.88,North,0,2.7,4.0,42,0.00,,---,0.00,VWS V14.01,2013-01-09 12:47:00,
2013-01-09 05:52:00,28.6,8.4,21.88,North,0,0.0,4.0,42,0.00,,---,0.00,VWS V14.01,2013-01-09 12:52:00,
2013-01-09 05:57:00,28.4,8.2,21.88,North,0,0.0,0.0,42,0.00,,---,0.00,VWS V14.01,2013-01-09 12:57:00,
2013-01-09 06:04:00,29.3,8.5,21.88,NW,315,2.7,2.7,41,0.00,,---,0.00,VWS V14.01,2013-01-09 13:04:00,
2013-01-09 06:09:00,29.5,8.7,21.88,NW,315,2.7,2.7,41,0.00,,---,0.00,VWS V14.01,2013-01-09 13:09:00,
2013-01-09 06:14:00,29.5,8.7,21.88,North,0,4.0,4.0,41,0.00,,---,0.00,VWS V14.01,2013-01-09 13:14:00,
2013-01-09 06:19:00,30.0,9.2,21.88,NW,315,2.2,3.6,41,0.00,,---,0.00,VWS V14.01,2013-01-09 13:19:00,
2013-01-09 06:24:00,29.7,8.9,21.88,NNW,338,3.1,3.1,41,0.00,,---,0.00,VWS V14.01,2013-01-09 13:24:00,
2013-01-09 06:29:00,29.1,8.4,21.88,NE,45,0.0,0.0,41,0.00,,---,0.00,VWS V14.01,2013-01-09 13:29:00,
2013-01-09 06:34:00,28.9,8.2,21.88,NE,45,3.1,3.1,41,0.00,,---,0.00,VWS V14.01,2013-01-09 13:34:00,
2013-01-09 06:40:00,29.3,8.5,21.88,NNW,338,2.2,2.2,41,0.00,,---,0.00,VWS V14.01,2013-01-09 13:40:00,
2013-01-09 06:45:00,29.3,8.5,21.88,North,0,2.2,3.1,41,0.00,,---,0.00,VWS V14.01,2013-01-09 13:45:00,
2013-01-09 06:50:00,28.8,8.0,21.88,North,0,0.0,0.0,41,0.00,,---,0.00,VWS V14.01,2013-01-09 13:50:00,
2013-01-09 06:55:00,27.7,7.6,21.88,North,0,0.0,0.0,42,0.00,,---,0.00,VWS V14.01,2013-01-09 13:55:00,
2013-01-09 07:00:00,27.1,6.6,21.88,North,0,0.0,0.0,41,0.00,,---,0.00,VWS V14.01,2013-01-09 14:00:00,
2013-01-09 07:05:00,26.6,6.6,21.88,SE,135,0.0,0.0,42,0.00,,---,0.00,VWS V14.01,2013-01-09 14:05:00,
2013-01-09 07:10:00,26.1,6.1,21.88,SE,135,0.0,0.0,42,0.00,,---,0.00,VWS V14.01,2013-01-09 14:10:00,
2013-01-09 07:15:00,25.3,5.5,21.88,SE,135,0.0,0.0,42,0.00,,---,0.00,VWS V14.01,2013-01-09 14:15:00,
2013-01-09 07:20:00,24.8,5.5,21.88,SW,225,0.0,0.0,43,0.00,,---,0.00,VWS V14.01,2013-01-09 14:20:00,
2013-01-09 07:25:00,24.4,5.2,21.88,SW,225,0.0,0.0,43,0.00,,---,0.00,VWS V14.01,2013-01-09 14:25:00,
2013-01-09 07:30:00,23.9,4.7,21.88,West,270,0.0,0.0,43,0.00,,---,0.00,VWS V14.01,2013-01-09 14:30:00,
2013-01-09 07:35:00,23.5,4.3,21.88,West,270,0.0,0.0,43,0.00,,---,0.00,VWS V14.01,2013-01-09 14:35:00,
2013-01-09 07:40:00,23.0,4.3,21.88,West,270,0.0,0.0,44,0.00,,---,0.00,VWS V14.01,2013-01-09 14:40:00,
2013-01-09 07:45:00,22.6,4.0,21.88,West,270,0.0,0.0,44,0.00,,---,0.00,VWS V14.01,2013-01-09 14:45:00,
2013-01-09 07:50:00,22.3,4.2,21.88,West,270,0.0,0.0,45,0.00,,---,0.00,VWS V14.01,2013-01-09 14:50:00,
2013-01-09 07:55:00,21.9,3.8,21.88,West,270,2.2,3.6,45,0.00,,---,0.00,VWS V14.01,2013-01-09 14:55:00,
2013-01-09 08:00:00,21.9,3.8,21.91,NW,315,0.0,0.0,45,0.00,,---,0.00,VWS V14.01,2013-01-09 15:00:00,
2013-01-09 08:06:00,21.9,3.8,21.91,NW,315,0.0,0.0,45,0.00,,---,0.00,VWS V14.01,2013-01-09 15:06:00,
2013-01-09 08:11:00,21.6,3.5,21.91,NW,315,0.0,0.0,45,0.00,,---,0.00,VWS V14.01,2013-01-09 15:11:00,
2013-01-09 08:16:00,21.7,4.2,21.91,NW,315,0.0,0.0,46,0.00,,---,0.00,VWS V14.01,2013-01-09 15:16:00,
2013-01-09 08:21:00,21.9,4.3,21.91,NW,315,0.0,0.0,46,0.00,,---,0.00,VWS V14.01,2013-01-09 15:21:00,
2013-01-09 08:26:00,22.6,4.5,21.91,NW,315,0.0,0.0,45,0.00,,---,0.00,VWS V14.01,2013-01-09 15:26:00,
2013-01-09 08:31:00,23.2,5.0,21.91,NW,315,0.0,0.0,45,0.00,,---,0.00,VWS V14.01,2013-01-09 15:31:00,
2013-01-09 08:36:00,23.5,5.3,21.91,NW,315,0.0,0.0,45,0.00,,---,0.00,VWS V14.01,2013-01-09 15:36:00,
2013-01-09 08:41:00,24.8,6.5,21.91,NW,315,0.0,0.0,45,0.00,,---,0.00,VWS V14.01,2013-01-09 15:41:00,
2013-01-09 08:46:00,26.1,7.2,21.91,NW,315,0.0,0.0,44,0.00,,---,0.00,VWS V14.01,2013-01-09 15:46:00,
2013-01-09 08:51:00,28.0,8.4,21.91,NW,315,0.0,0.0,43,0.00,,---,0.00,VWS V14.01,2013-01-09 15:51:00,
2013-01-09 08:56:00,29.5,9.2,21.91,NW,315,0.0,0.0,42,0.00,,---,0.00,VWS V14.01,2013-01-09 15:56:00,
2013-01-09 09:01:00,32.0,11.0,21.91,NW,315,0.0,0.0,41,0.00,,---,0.00,VWS V14.01,2013-01-09 16:01:00,
2013-01-09 09:07:00,33.4,12.3,21.91,NW,315,0.0,0.0,41,0.00,,---,0.00,VWS V14.01,2013-01-09 16:07:00,
2013-01-09 09:12:00,35.4,13.5,21.91,NW,315,0.0,0.0,40,0.00,,---,0.00,VWS V14.01,2013-01-09 16:12:00,
2013-01-09 09:17:00,37.2,14.0,21.91,NW,315,0.0,0.0,38,0.00,,---,0.00,VWS V14.01,2013-01-09 16:17:00,
2013-01-09 09:22:00,38.3,14.3,21.91,NW,315,0.0,0.0,37,0.00,,---,0.00,VWS V14.01,2013-01-09 16:22:00,
2013-01-09 09:27:00,38.8,14.2,21.91,NW,315,0.0,0.0,36,0.00,,---,0.00,VWS V14.01,2013-01-09 16:27:00,
2013-01-09 09:32:00,39.2,13.9,21.91,NW,315,0.0,0.0,35,0.00,,---,0.00,VWS V14.01,2013-01-09 16:32:00,
2013-01-09 09:37:00,39.7,13.7,21.91,East,90,2.2,3.6,34,0.00,,---,0.00,VWS V14.01,2013-01-09 16:37:00,
2013-01-09 09:42:00,41.0,14.1,21.91,ESE,112,0.0,0.0,33,0.00,,---,0.00,VWS V14.01,2013-01-09 16:42:00,
2013-01-09 09:47:00,41.7,14.8,21.91,ESE,112,0.0,0.0,33,0.00,,---,0.00,VWS V14.01,2013-01-09 16:47:00,
2013-01-09 09:52:00,42.3,14.5,21.91,East,90,0.0,3.6,32,0.00,,---,0.00,VWS V14.01,2013-01-09 16:52:00,
2013-01-09 09:57:00,43.0,14.4,21.91,SE,135,2.7,3.1,31,0.00,,---,0.00,VWS V14.01,2013-01-09 16:57:00,
2013-01-09 10:02:00,43.0,14.4,21.91,East,90,0.0,0.0,31,0.00,,---,0.00,VWS V14.01,2013-01-09 17:02:00,
2013-01-09 10:07:00,43.7,15.1,21.91,SE,135,0.0,0.0,31,0.00,,---,0.00,VWS V14.01,2013-01-09 17:07:00,
2013-01-09 10:12:00,43.7,14.3,21.91,SE,135,4.9,5.4,30,0.00,,---,0.00,VWS V14.01,2013-01-09 17:12:00,
2013-01-09 10:17:00,43.7,14.3,21.91,East,90,3.6,4.0,30,0.00,,---,0.00,VWS V14.01,2013-01-09 17:17:00,
2013-01-09 10:22:00,43.3,14.0,21.91,SE,135,4.9,5.8,30,0.00,,---,0.00,VWS V14.01,2013-01-09 17:22:00,
2013-01-09 10:27:00,43.3,14.0,21.91,SE,135,4.9,8.1,30,0.00,,---,0.00,VWS V14.01,2013-01-09 17:27:00,
2013-01-09 10:32:00,43.0,13.7,21.91,ENE,68,6.7,6.7,30,0.00,,---,0.00,VWS V14.01,2013-01-09 17:32:00,
2013-01-09 10:37:00,43.2,13.8,21.91,East,90,5.8,10.1,30,0.00,,---,0.00,VWS V14.01,2013-01-09 17:37:00,
2013-01-09 10:42:00,43.3,13.2,21.91,ESE,112,7.6,8.1,29,0.00,,---,0.00,VWS V14.01,2013-01-09 17:42:00,
2013-01-09 10:47:00,44.1,13.9,21.91,East,90,4.9,4.9,29,0.00,,---,0.00,VWS V14.01,2013-01-09 17:47:00,
2013-01-09 10:52:00,44.8,14.5,21.91,East,90,5.8,5.8,29,0.00,,---,0.00,VWS V14.01,2013-01-09 17:52:00,
2013-01-09 10:57:00,45.5,15.1,21.91,East,90,2.7,2.7,29,0.00,,---,0.00,VWS V14.01,2013-01-09 17:57:00,
2013-01-09 11:02:00,46.0,14.8,21.88,East,90,4.5,5.8,28,0.00,,---,0.00,VWS V14.01,2013-01-09 18:02:00,
2013-01-09 11:07:00,46.4,15.1,21.88,SE,135,7.2,7.2,28,0.00,,---,0.00,VWS V14.01,2013-01-09 18:07:00,
2013-01-09 11:12:00,47.3,15.9,21.88,SE,135,3.6,4.9,28,0.00,,---,0.00,VWS V14.01,2013-01-09 18:12:00,
2013-01-09 11:17:00,47.5,16.0,21.88,SE,135,4.0,6.3,28,0.00,,---,0.00,VWS V14.01,2013-01-09 18:17:00,
2013-01-09 11:22:00,47.5,16.0,21.88,SE,135,3.6,4.9,28,0.00,,---,0.00,VWS V14.01,2013-01-09 18:22:00,
2013-01-09 11:27:00,47.3,15.9,21.88,East,90,2.7,5.4,28,0.00,,---,0.00,VWS V14.01,2013-01-09 18:27:00,
2013-01-09 11:33:00,48.4,16.0,21.88,East,90,2.7,3.1,27,0.00,,---,0.00,VWS V14.01,2013-01-09 18:33:00,
2013-01-09 11:38:00,48.4,16.0,21.88,East,90,3.1,4.0,27,0.00,,---,0.00,VWS V14.01,2013-01-09 18:38:00,
2013-01-09 11:41:00,48.7,16.3,21.88,SE,135,3.1,3.1,27,0.00,,---,0.00,VWS V14.01,2013-01-09 18:41:00,
2013-01-09 11:43:00,48.7,16.3,21.88,ESE,112,4.5,5.4,27,0.00,,---,0.00,VWS V14.01,2013-01-09 18:43:00,
2013-01-09 11:44:00,48.7,16.3,21.88,ESE,112,4.5,4.5,27,0.00,,---,0.00,VWS V14.01,2013-01-09 18:44:00,
2013-01-09 11:45:00,48.7,16.3,21.88,ESE,112,4.5,4.5,27,0.00,,---,0.00,VWS V14.01,2013-01-09 18:45:00,
2013-01-09 11:46:00,48.9,16.4,21.88,SE,135,3.1,3.1,27,0.00,,---,0.00,VWS V14.01,2013-01-09 18:46:00,
2013-01-09 11:48:00,48.9,16.4,21.88,SE,135,3.1,3.1,27,0.00,,---,0.00,VWS V14.01,2013-01-09 18:48:00,
2013-01-09 11:49:00,49.3,16.7,21.88,SE,135,0.0,3.1,27,0.00,,---,0.00,VWS V14.01,2013-01-09 18:49:00,
2013-01-09 11:52:00,49.5,16.9,21.88,South,180,3.6,4.0,27,0.00,,---,0.00,VWS V14.01,2013-01-09 18:52:00,
2013-01-09 11:57:00,49.6,17.0,21.88,East,90,3.1,3.6,27,0.00,,---,0.00,VWS V14.01,2013-01-09 18:57:00,
2013-01-09 12:02:00,49.8,17.2,21.85,SE,135,3.1,5.8,27,0.00,,---,0.00,VWS V14.01,2013-01-09 19:02:00,
2013-01-09 12:07:00,50.5,17.8,21.85,South,180,3.1,4.0,27,0.00,,---,0.00,VWS V14.01,2013-01-09 19:07:00,
2013-01-09 12:12:00,50.7,18.0,21.85,East,90,5.4,5.4,27,0.00,,---,0.00,VWS V14.01,2013-01-09 19:12:00,
2013-01-09 12:17:00,50.7,17.1,21.85,SE,135,4.5,4.5,26,0.00,,---,0.00,VWS V14.01,2013-01-09 19:17:00,
2013-01-09 12:22:00,50.9,17.2,21.85,South,180,0.0,3.1,26,0.00,,---,0.00,VWS V14.01,2013-01-09 19:22:00,
2013-01-09 12:27:00,50.7,17.1,21.85,SE,135,2.7,6.3,26,0.00,,---,0.00,VWS V14.01,2013-01-09 19:27:00,
2013-01-09 12:32:00,50.9,17.2,21.85,ESE,112,3.6,8.1,26,0.00,,---,0.00,VWS V14.01,2013-01-09 19:32:00,
2013-01-09 12:38:00,50.9,17.2,21.85,South,180,2.7,3.1,26,0.00,,---,0.00,VWS V14.01,2013-01-09 19:38:00,
2013-01-09 12:43:00,51.1,17.4,21.85,East,90,2.2,4.9,26,0.00,,---,0.00,VWS V14.01,2013-01-09 19:43:00,
2013-01-09 12:48:00,50.9,17.2,21.85,SE,135,3.6,6.3,26,0.00,,---,0.00,VWS V14.01,2013-01-09 19:48:00,
2013-01-09 12:53:00,50.9,17.2,21.85,South,180,2.2,4.0,26,0.00,,---,0.00,VWS V14.01,2013-01-09 19:53:00,
2013-01-09 12:58:00,51.3,17.6,21.85,East,90,2.2,2.2,26,0.00,,---,0.00,VWS V14.01,2013-01-09 19:58:00,
2013-01-09 13:03:00,52.0,18.2,21.85,ESE,112,4.9,4.9,26,0.00,,---,0.00,VWS V14.01,2013-01-09 20:03:00,
2013-01-09 13:08:00,52.0,18.2,21.85,SE,135,2.7,3.1,26,0.00,,---,0.00,VWS V14.01,2013-01-09 20:08:00,
2013-01-09 13:13:00,51.6,17.9,21.85,South,180,3.6,5.4,26,0.00,,---,0.00,VWS V14.01,2013-01-09 20:13:00,
2013-01-09 13:18:00,52.2,18.3,21.85,South,180,2.7,2.7,26,0.00,,---,0.00,VWS V14.01,2013-01-09 20:18:00,
2013-01-09 13:23:00,51.8,18.0,21.85,SE,135,0.0,3.1,26,0.00,,---,0.00,VWS V14.01,2013-01-09 20:23:00,
2013-01-09 13:28:00,52.2,18.3,21.85,East,90,4.0,5.4,26,0.00,,---,0.00,VWS V14.01,2013-01-09 20:28:00,
2013-01-09 13:33:00,52.2,18.3,21.85,South,180,2.7,3.6,26,0.00,,---,0.00,VWS V14.01,2013-01-09 20:33:00,
2013-01-09 13:38:00,52.5,18.6,21.85,East,90,3.1,4.0,26,0.00,,---,0.00,VWS V14.01,2013-01-09 20:38:00,
2013-01-09 13:43:00,52.2,18.3,21.85,East,90,3.6,5.4,26,0.00,,---,0.00,VWS V14.01,2013-01-09 20:43:00,
2013-01-09 13:48:00,51.3,17.6,21.82,South,180,3.6,4.9,26,0.00,,---,0.00,VWS V14.01,2013-01-09 20:48:00,
2013-01-09 13:53:00,50.7,17.1,21.82,SE,135,2.7,5.8,26,0.00,,---,0.00,VWS V14.01,2013-01-09 20:53:00,
2013-01-09 13:58:00,49.8,14.5,21.82,SE,135,3.1,4.0,24,0.00,,---,0.00,VWS V14.01,2013-01-09 20:58:00,
2013-01-09 14:03:00,50.2,16.6,21.85,SE,135,3.1,6.3,26,0.00,,---,0.00,VWS V14.01,2013-01-09 21:03:00,
2013-01-09 14:09:00,50.7,15.3,21.85,SE,135,4.0,4.0,24,0.00,,---,0.00,VWS V14.01,2013-01-09 21:09:00,
2013-01-09 14:14:00,51.1,15.6,21.85,East,90,6.3,6.3,24,0.00,,---,0.00,VWS V14.01,2013-01-09 21:14:00,
2013-01-09 14:19:00,50.5,15.1,21.85,East,90,6.7,6.7,24,0.00,,---,0.00,VWS V14.01,2013-01-09 21:19:00,
2013-01-09 14:24:00,50.0,14.6,21.85,SE,135,6.7,7.6,24,0.00,,---,0.00,VWS V14.01,2013-01-09 21:24:00,
2013-01-09 14:29:00,49.5,14.2,21.85,East,90,3.6,5.4,24,0.00,,---,0.00,VWS V14.01,2013-01-09 21:29:00,
2013-01-09 14:34:00,49.3,14.0,21.85,East,90,9.6,9.6,24,0.00,,---,0.00,VWS V14.01,2013-01-09 21:34:00,
2013-01-09 14:39:00,49.6,14.3,21.85,East,90,2.7,2.7,24,0.00,,---,0.00,VWS V14.01,2013-01-09 21:39:00,
2013-01-09 14:44:00,50.2,14.8,21.85,South,180,4.0,4.0,24,0.00,,---,0.00,VWS V14.01,2013-01-09 21:44:00,
2013-01-09 14:49:00,50.7,15.3,21.85,East,90,4.9,4.9,24,0.00,,---,0.00,VWS V14.01,2013-01-09 21:49:00,
2013-01-09 14:54:00,51.1,15.6,21.85,South,180,3.1,3.6,24,0.00,,---,0.00,VWS V14.01,2013-01-09 21:54:00,
2013-01-09 14:59:00,51.4,15.9,21.85,South,180,2.2,3.6,24,0.00,,---,0.00,VWS V14.01,2013-01-09 21:59:00,
2013-01-09 15:04:00,51.8,15.2,21.85,East,90,4.0,4.0,23,0.00,,---,0.00,VWS V14.01,2013-01-09 22:04:00,
2013-01-09 15:09:00,51.8,15.2,21.85,South,180,3.6,4.0,23,0.00,,---,0.00,VWS V14.01,2013-01-09 22:09:00,
2013-01-09 15:14:00,51.6,16.0,21.85,East,90,2.7,2.7,24,0.00,,---,0.00,VWS V14.01,2013-01-09 22:14:00,
2013-01-09 15:19:00,51.8,15.2,21.82,South,180,0.0,0.0,23,0.00,,---,0.00,VWS V14.01,2013-01-09 22:19:00,
2013-01-09 15:24:00,51.6,16.0,21.82,East,90,2.2,5.4,24,0.00,,---,0.00,VWS V14.01,2013-01-09 22:24:00,
2013-01-09 15:29:00,51.3,15.7,21.82,SE,135,2.2,3.6,24,0.00,,---,0.00,VWS V14.01,2013-01-09 22:29:00,
2013-01-09 15:34:00,51.4,15.9,21.82,SE,135,2.7,4.0,24,0.00,,---,0.00,VWS V14.01,2013-01-09 22:34:00,
2013-01-09 15:39:00,50.4,14.9,21.82,ESE,112,3.6,6.3,24,0.00,,---,0.00,VWS V14.01,2013-01-09 22:39:00,
2013-01-09 15:44:00,48.9,13.7,21.82,ESE,112,2.2,4.0,24,0.00,,---,0.00,VWS V14.01,2013-01-09 22:44:00,
2013-01-09 15:49:00,48.4,13.3,21.82,SE,135,0.0,4.0,24,0.00,,---,0.00,VWS V14.01,2013-01-09 22:49:00,
2013-01-09 15:54:00,47.5,12.5,21.82,ESE,112,0.0,0.0,24,0.00,,---,0.00,VWS V14.01,2013-01-09 22:54:00,
2013-01-09 15:59:00,46.8,11.9,21.82,SW,225,0.0,0.0,24,0.00,,---,0.00,VWS V14.01,2013-01-09 22:59:00,
2013-01-09 16:04:00,46.2,12.4,21.82,SW,225,0.0,0.0,25,0.00,,---,0.00,VWS V14.01,2013-01-09 23:04:00,
2013-01-09 16:10:00,45.7,11.9,21.82,ESE,112,2.2,3.6,25,0.00,,---,0.00,VWS V14.01,2013-01-09 23:10:00,
2013-01-09 16:15:00,45.1,11.4,21.82,ESE,112,0.0,0.0,25,0.00,,---,0.00,VWS V14.01,2013-01-09 23:15:00,
2013-01-09 16:20:00,45.0,11.3,21.82,ESE,112,0.0,0.0,25,0.00,,---,0.00,VWS V14.01,2013-01-09 23:20:00,
2013-01-09 16:25:00,42.8,12.0,21.82,South,180,0.0,0.0,28,0.00,,---,0.00,VWS V14.01,2013-01-09 23:25:00,
2013-01-09 16:30:00,42.1,11.3,21.82,South,180,0.0,0.0,28,0.00,,---,0.00,VWS V14.01,2013-01-09 23:30:00,
2013-01-09 16:35:00,41.0,10.4,21.82,South,180,0.0,0.0,28,0.00,,---,0.00,VWS V14.01,2013-01-09 23:35:00,
2013-01-09 16:40:00,39.6,9.2,21.82,SW,225,0.0,0.0,28,0.00,,---,0.00,VWS V14.01,2013-01-09 23:40:00,
2013-01-09 16:45:00,38.1,8.7,21.82,SW,225,0.0,0.0,29,0.00,,---,0.00,VWS V14.01,2013-01-09 23:45:00,
2013-01-09 16:50:00,36.7,7.4,21.82,SW,225,0.0,0.0,29,0.00,,---,0.00,VWS V14.01,2013-01-09 23:50:00,
2013-01-09 16:55:00,35.4,7.1,21.82,SW,225,0.0,0.0,30,0.00,,---,0.00,VWS V14.01,2013-01-09 23:55:00,
2013-01-09 17:00:00,34.3,6.9,21.82,SW,225,0.0,0.0,31,0.00,,---,0.00,VWS V14.01,2013-01-10 00:00:00,
2013-01-09 17:05:00,33.3,6.6,21.82,SW,225,0.0,0.0,32,0.00,,---,0.00,VWS V14.01,2013-01-10 00:05:00,
2013-01-09 17:10:00,32.4,5.8,21.82,SW,225,0.0,0.0,32,0.00,,---,0.00,VWS V14.01,2013-01-10 00:10:00,
2013-01-09 17:15:00,31.6,5.8,21.82,SW,225,0.0,0.0,33,0.00,,---,0.00,VWS V14.01,2013-01-10 00:15:00,
2013-01-09 17:20:00,30.7,5.1,21.82,SW,225,0.0,0.0,33,0.00,,---,0.00,VWS V14.01,2013-01-10 00:20:00,
2013-01-09 17:25:00,29.7,4.7,21.82,SW,225,0.0,0.0,34,0.00,,---,0.00,VWS V14.01,2013-01-10 00:25:00,
2013-01-09 17:30:00,29.3,5.1,21.82,SW,225,0.0,0.0,35,0.00,,---,0.00,VWS V14.01,2013-01-10 00:30:00,
2013-01-09 17:35:00,28.4,4.2,21.82,SW,225,0.0,0.0,35,0.00,,---,0.00,VWS V14.01,2013-01-10 00:35:00,
2013-01-09 17:40:00,28.0,4.5,21.82,West,270,0.0,0.0,36,0.00,,---,0.00,VWS V14.01,2013-01-10 00:40:00,
2013-01-09 17:45:00,27.5,4.1,21.82,West,270,0.0,0.0,36,0.00,,---,0.00,VWS V14.01,2013-01-10 00:45:00,
2013-01-09 17:50:00,27.0,4.2,21.82,West,270,0.0,0.0,37,0.00,,---,0.00,VWS V14.01,2013-01-10 00:50:00,
2013-01-09 17:55:00,27.7,4.8,21.82,NW,315,0.0,0.0,37,0.00,,---,0.00,VWS V14.01,2013-01-10 00:55:00,
2013-01-09 18:00:00,27.1,4.9,21.82,NW,315,0.0,0.0,38,0.00,,---,0.00,VWS V14.01,2013-01-10 01:00:00,
2013-01-09 18:05:00,26.8,4.6,21.82,NW,315,0.0,0.0,38,0.00,,---,0.00,VWS V14.01,2013-01-10 01:05:00,
2013-01-09 18:11:00,27.1,5.5,21.82,NW,315,0.0,0.0,39,0.00,,---,0.00,VWS V14.01,2013-01-10 01:11:00,
2013-01-09 18:16:00,26.8,6.2,21.82,NW,315,0.0,3.1,41,0.00,,---,0.00,VWS V14.01,2013-01-10 01:16:00,
2013-01-09 18:21:00,26.6,6.1,21.82,NW,315,3.1,3.1,41,0.00,,---,0.00,VWS V14.01,2013-01-10 01:21:00,
2013-01-09 18:26:00,26.6,6.1,21.82,NW,315,2.2,2.2,41,0.00,,---,0.00,VWS V14.01,2013-01-10 01:26:00,
2013-01-09 18:31:00,26.8,6.2,21.82,NW,315,0.0,0.0,41,0.00,,---,0.00,VWS V14.01,2013-01-10 01:31:00,
2013-01-09 18:36:00,26.6,6.6,21.82,NW,315,0.0,0.0,42,0.00,,---,0.00,VWS V14.01,2013-01-10 01:36:00,
2013-01-09 18:41:00,26.1,6.1,21.82,NW,315,0.0,0.0,42,0.00,,---,0.00,VWS V14.01,2013-01-10 01:41:00,
2013-01-09 18:46:00,26.1,5.6,21.79,NW,315,0.0,0.0,41,0.00,,---,0.00,VWS V14.01,2013-01-10 01:46:00,
2013-01-09 18:51:00,26.1,5.6,21.79,North,0,3.6,5.4,41,0.00,,---,0.00,VWS V14.01,2013-01-10 01:51:00,
2013-01-09 18:56:00,27.1,6.0,21.79,North,0,0.0,0.0,40,0.00,,---,0.00,VWS V14.01,2013-01-10 01:56:00,
2013-01-09 19:01:00,27.3,6.2,21.79,North,0,0.0,0.0,40,0.00,,---,0.00,VWS V14.01,2013-01-10 02:01:00,
2013-01-09 19:06:00,27.1,5.5,21.79,North,0,0.0,0.0,39,0.00,,---,0.00,VWS V14.01,2013-01-10 02:06:00,
2013-01-09 19:11:00,27.0,5.9,21.79,North,0,0.0,0.0,40,0.00,,---,0.00,VWS V14.01,2013-01-10 02:11:00,
2013-01-09 19:16:00,27.0,5.3,21.79,North,0,0.0,0.0,39,0.00,,---,0.00,VWS V14.01,2013-01-10 02:16:00,
2013-01-09 19:21:00,27.0,5.3,21.79,North,0,0.0,0.0,39,0.00,,---,0.00,VWS V14.01,2013-01-10 02:21:00,
2013-01-09 19:26:00,26.2,5.2,21.79,North,0,0.0,0.0,40,0.00,,---,0.00,VWS V14.01,2013-01-10 02:26:00,
2013-01-09 19:31:00,26.1,5.1,21.79,North,0,0.0,0.0,40,0.00,,---,0.00,VWS V14.01,2013-01-10 02:31:00,
2013-01-09 19:36:00,26.2,4.7,21.79,North,0,0.0,0.0,39,0.00,,---,0.00,VWS V14.01,2013-01-10 02:36:00,
2013-01-09 19:41:00,25.9,4.9,21.79,North,0,0.0,0.0,40,0.00,,---,0.00,VWS V14.01,2013-01-10 02:41:00,
2013-01-09 19:46:00,25.9,4.9,21.79,North,0,0.0,0.0,40,0.00,,---,0.00,VWS V14.01,2013-01-10 02:46:00,
2013-01-09 19:51:00,25.5,4.6,21.79,North,0,0.0,0.0,40,0.00,,---,0.00,VWS V14.01,2013-01-10 02:51:00,
2013-01-09 19:56:00,26.2,4.7,21.79,North,0,0.0,0.0,39,0.00,,---,0.00,VWS V14.01,2013-01-10 02:56:00,
2013-01-09 20:01:00,25.7,4.7,21.76,North,0,0.0,0.0,40,0.00,,---,0.00,VWS V14.01,2013-01-10 03:01:00,
2013-01-09 20:06:00,25.5,5.1,21.76,North,0,0.0,0.0,41,0.00,,---,0.00,VWS V14.01,2013-01-10 03:06:00,
2013-01-09 20:12:00,25.5,4.6,21.76,North,0,0.0,0.0,40,0.00,,---,0.00,VWS V14.01,2013-01-10 03:12:00,
2013-01-09 20:17:00,25.2,4.2,21.76,North,0,0.0,0.0,40,0.00,,---,0.00,VWS V14.01,2013-01-10 03:17:00,
2013-01-09 20:22:00,25.2,4.2,21.76,North,0,0.0,0.0,40,0.00,,---,0.00,VWS V14.01,2013-01-10 03:22:00,
2013-01-09 20:27:00,25.3,3.9,21.76,North,0,0.0,0.0,39,0.00,,---,0.00,VWS V14.01,2013-01-10 03:27:00,
2013-01-09 20:32:00,25.0,3.5,21.76,North,0,0.0,0.0,39,0.00,,---,0.00,VWS V14.01,2013-01-10 03:32:00,
2013-01-09 20:37:00,24.8,3.9,21.76,North,0,0.0,0.0,40,0.00,,---,0.00,VWS V14.01,2013-01-10 03:37:00,
2013-01-09 20:42:00,25.0,3.5,21.76,North,0,0.0,0.0,39,0.00,,---,0.00,VWS V14.01,2013-01-10 03:42:00,
2013-01-09 20:47:00,24.8,3.4,21.76,North,0,0.0,0.0,39,0.00,,---,0.00,VWS V14.01,2013-01-10 03:47:00,
2013-01-09 20:52:00,24.8,3.4,21.76,North,0,0.0,0.0,39,0.00,,---,0.00,VWS V14.01,2013-01-10 03:52:00,
2013-01-09 20:57:00,24.4,3.0,21.76,North,0,0.0,0.0,39,0.00,,---,0.00,VWS V14.01,2013-01-10 03:57:00,
2013-01-09 21:02:00,24.1,2.7,21.76,North,0,0.0,0.0,39,0.00,,---,0.00,VWS V14.01,2013-01-10 04:02:00,
2013-01-09 21:07:00,24.3,2.9,21.76,North,0,0.0,0.0,39,0.00,,---,0.00,VWS V14.01,2013-01-10 04:07:00,
2013-01-09 21:13:00,23.5,2.2,21.76,North,0,0.0,0.0,39,0.00,,---,0.00,VWS V14.01,2013-01-10 04:13:00,
2013-01-09 21:18:00,23.5,1.7,21.76,North,0,0.0,0.0,38,0.00,,---,0.00,VWS V14.01,2013-01-10 04:18:00,
2013-01-09 21:23:00,23.5,1.7,21.76,North,0,0.0,0.0,38,0.00,,---,0.00,VWS V14.01,2013-01-10 04:23:00,
2013-01-09 21:28:00,23.4,0.9,21.76,North,0,0.0,0.0,37,0.00,,---,0.00,VWS V14.01,2013-01-10 04:28:00,
2013-01-09 21:33:00,23.4,1.5,21.76,North,0,0.0,0.0,38,0.00,,---,0.00,VWS V14.01,2013-01-10 04:33:00,
2013-01-09 21:38:00,23.4,1.5,21.76,North,0,0.0,0.0,38,0.00,,---,0.00,VWS V14.01,2013-01-10 04:38:00,
2013-01-09 21:43:00,23.4,2.1,21.76,SE,135,2.7,3.1,39,0.00,,---,0.00,VWS V14.01,2013-01-10 04:43:00,
2013-01-09 21:48:00,23.9,2.6,21.76,SE,135,0.0,0.0,39,0.00,,---,0.00,VWS V14.01,2013-01-10 04:48:00,
2013-01-09 21:53:00,24.1,3.3,21.76,SE,135,0.0,0.0,40,0.00,,---,0.00,VWS V14.01,2013-01-10 04:53:00,
2013-01-09 21:58:00,23.9,3.1,21.76,SE,135,0.0,0.0,40,0.00,,---,0.00,VWS V14.01,2013-01-10 04:58:00,
2013-01-09 22:01:00,24.3,2.9,21.76,SE,135,0.0,0.0,39,0.00,,---,0.00,VWS V14.01,2013-01-10 05:01:00,
2013-01-09 22:02:00,24.4,3.6,21.76,SE,135,0.0,0.0,40,0.00,,---,0.00,VWS V14.01,2013-01-10 05:02:00,
2013-01-09 22:03:00,24.6,3.2,21.76,SE,135,0.0,0.0,39,0.00,,---,0.00,VWS V14.01,2013-01-10 05:03:00,
2013-01-09 22:08:00,25.0,3.0,21.76,SE,135,0.0,0.0,38,0.00,,---,0.00,VWS V14.01,2013-01-10 05:08:00,
2013-01-09 22:13:00,25.3,2.7,21.76,SE,135,0.0,0.0,37,0.00,,---,0.00,VWS V14.01,2013-01-10 05:13:00,
2013-01-09 22:18:00,25.3,3.3,21.76,SE,135,0.0,0.0,38,0.00,,---,0.00,VWS V14.01,2013-01-10 05:18:00,
2013-01-09 22:23:00,25.7,3.6,21.76,SE,135,0.0,0.0,38,0.00,,---,0.00,VWS V14.01,2013-01-10 05:23:00,
2013-01-09 22:28:00,25.5,2.9,21.76,East,90,0.0,0.0,37,0.00,,---,0.00,VWS V14.01,2013-01-10 05:28:00,
2013-01-09 22:33:00,25.5,2.9,21.76,East,90,0.0,0.0,37,0.00,,---,0.00,VWS V14.01,2013-01-10 05:33:00,
2013-01-09 22:38:00,25.9,3.8,21.76,East,90,0.0,0.0,38,0.00,,---,0.00,VWS V14.01,2013-01-10 05:38:00,
2013-01-09 22:43:00,26.1,3.9,21.76,East,90,0.0,0.0,38,0.00,,---,0.00,VWS V14.01,2013-01-10 05:43:00,
2013-01-09 22:48:00,26.2,4.1,21.76,East,90,0.0,0.0,38,0.00,,---,0.00,VWS V14.01,2013-01-10 05:48:00,
2013-01-09 22:53:00,25.7,3.6,21.76,East,90,0.0,0.0,38,0.00,,---,0.00,VWS V14.01,2013-01-10 05:53:00,
2013-01-09 22:58:00,25.2,3.1,21.76,East,90,0.0,0.0,38,0.00,,---,0.00,VWS V14.01,2013-01-10 05:58:00,
2013-01-09 23:03:00,25.2,3.7,21.76,East,90,2.7,3.1,39,0.00,,---,0.00,VWS V14.01,2013-01-10 06:03:00,
2013-01-09 23:08:00,24.8,3.4,21.76,East,90,0.0,0.0,39,0.00,,---,0.00,VWS V14.01,2013-01-10 06:08:00,
2013-01-09 23:14:00,24.3,2.9,21.76,East,90,0.0,0.0,39,0.00,,---,0.00,VWS V14.01,2013-01-10 06:14:00,
2013-01-09 23:19:00,23.9,2.0,21.73,East,90,0.0,0.0,38,0.00,,---,0.00,VWS V14.01,2013-01-10 06:19:00,
2013-01-09 23:24:00,23.5,2.2,21.73,East,90,0.0,0.0,39,0.00,,---,0.00,VWS V14.01,2013-01-10 06:24:00,
2013-01-09 23:29:00,23.7,1.8,21.73,East,90,0.0,0.0,38,0.00,,---,0.00,VWS V14.01,2013-01-10 06:29:00,
2013-01-09 23:34:00,23.4,1.5,21.73,East,90,0.0,0.0,38,0.00,,---,0.00,VWS V14.01,2013-01-10 06:34:00,
2013-01-09 23:39:00,23.2,1.4,21.73,East,90,0.0,0.0,38,0.00,,---,0.00,VWS V14.01,2013-01-10 06:39:00,
2013-01-09 23:44:00,22.8,1.6,21.73,East,90,0.0,0.0,39,0.00,,---,0.00,VWS V14.01,2013-01-10 06:44:00,
2013-01-09 23:49:00,22.8,1.6,21.73,East,90,0.0,0.0,39,0.00,,---,0.00,VWS V14.01,2013-01-10 06:49:00,
2013-01-09 23:54:00,22.6,1.4,21.73,East,90,0.0,0.0,39,0.00,,---,0.00,VWS V14.01,2013-01-10 06:54:00,
2013-01-09 23:59:00,22.8,1.6,21.73,East,90,0.0,0.0,39,0.00,,---,0.00,VWS V14.01,2013-01-10 06:59:00,